MST,Max TemperatureF,Mean TemperatureF,Min TemperatureF,Max Dew PointF,MeanDew PointF,Min DewpointF,Max Humidity, Mean Humidity, Min Humidity, Max Sea Level PressureIn, Mean Sea Level PressureIn, Min Sea Level PressureIn, Max VisibilityMiles, Mean VisibilityMiles, Min VisibilityMiles, Max Wind SpeedMPH, Mean Wind SpeedMPH, Max Gust SpeedMPH,PrecipitationIn, CloudCover, Events, WindDirDegrees
2011-11-1,67,50,33,33,29,27,75,50,24,29.99,29.86,29.71,10,10,10,21,9,24,0.00,1,,13
2011-11-2,41,33,24,30,25,22,92,72,52,30.52,30.32,29.97,10,7,0,38,13,46,0.09,5,Fog-Snow,16
2011-11-3,46,32,18,30,24,16,92,71,49,30.49,30.29,30.02,10,10,9,14,4,18,0.00,0,,215
2011-11-4,62,43,23,37,29,21,92,64,35,30.00,29.85,29.66,10,10,7,13,4,15,0.00,0,,32
2011-11-5,63,46,28,36,26,14,92,59,26,29.64,29.44,29.26,10,10,10,37,12,44,T,1,,264
2011-11-6,56,42,27,27,19,13,85,53,20,29.97,29.84,29.60,10,10,10,21,5,26,0.00,0,,51
2011-11-7,50,38,25,36,27,20,92,64,36,30.06,29.99,29.91,10,8,2,17,7,22,0.17,5,Rain-Snow,25
2011-11-8,46,40,33,34,32,28,100,79,58,30.34,30.09,29.99,10,6,2,15,4,16,0.10,6,Snow,269
2011-11-9,45,35,25,28,23,18,92,63,33,30.53,30.45,30.36,10,10,6,15,3,30,0.01,2,Snow,236
2011-11-10,62,41,19,27,18,7,91,52,12,30.45,30.24,29.97,10,10,10,20,5,25,0.00,0,,271
2011-11-11,57,44,31,30,14,-2,78,45,11,29.99,29.82,29.61,10,10,10,26,8,32,0.00,0,,285
2011-11-12,67,56,45,24,17,9,59,37,14,29.65,29.49,29.32,10,10,9,44,25,56,0.00,0,,276
2011-11-13,66,53,39,28,22,18,51,35,19,29.59,29.46,29.31,10,10,10,45,16,59,0.00,0,,288
2011-11-14,61,47,32,23,17,6,61,37,12,29.80,29.71,29.62,10,10,10,28,9,32,0.00,0,,282
2011-11-15,61,44,27,21,17,13,63,39,15,29.96,29.81,29.72,10,10,10,21,7,25,0.00,1,,201
2011-11-16,43,33,22,21,17,12,81,59,36,30.41,30.23,29.97,10,10,10,13,7,15,0.00,1,,77
2011-11-17,64,40,15,19,12,5,80,45,10,30.31,30.03,29.75,10,10,10,18,7,24,0.00,0,,269
2011-11-18,67,46,24,21,14,10,63,37,11,29.73,29.59,29.41,10,10,10,13,5,17,0.00,0,,237
2011-11-19,55,40,25,23,20,15,75,48,20,30.09,29.71,29.34,10,10,10,30,12,38,0.00,0,,134
2011-11-20,40,30,19,25,19,15,88,68,48,30.19,30.11,30.00,10,10,9,9,3,13,0.00,0,,96
2011-11-21,52,35,17,25,20,14,84,57,30,30.14,30.06,29.94,10,10,10,13,5,17,0.00,0,,296
2011-11-22,64,43,21,26,20,17,84,50,16,30.21,30.13,30.01,10,10,10,25,7,31,0.00,0,,282
2011-11-23,65,45,24,22,18,15,68,42,16,30.29,30.15,30.03,10,10,10,12,3,13,0.00,0,,291
2011-11-24,74,49,24,19,12,3,68,37,6,30.00,29.88,29.75,10,10,10,18,7,23,0.00,0,,258
2011-11-25,57,44,31,35,27,16,85,57,28,29.96,29.76,29.65,10,10,10,28,9,35,0.01,2,Rain,345
2011-11-26,44,30,15,21,5,-6,61,37,13,30.62,30.44,29.99,10,10,10,39,15,49,0.00,0,,14
2011-11-27,57,34,11,10,6,2,66,40,14,30.58,30.40,30.19,10,10,10,10,4,12,0.00,0,,320
2011-11-28,67,44,21,22,14,9,62,36,10,30.39,30.20,30.05,10,10,10,25,5,31,0.00,0,,338
2011-11-29,52,38,24,24,20,16,74,53,32,30.41,30.29,30.14,10,10,10,9,2,12,0.00,0,,61
2011-11-30,64,42,20,25,18,10,81,48,14,30.11,29.88,29.65,10,10,10,22,5,25,0.00,0,,316